User: anonymous   Login
Location: Star Hoppers Observatory
(42.7905°N, 83.6127°W)
Time: 21:17:07
(UTC-04:00)
Language:

NOSS 3-1 (A) - Orbit

View from above orbital plane
View from above orbital plane
View from above satellite
View from above satellite

Ground track
Ground track

The orbit data is extracted from the following two-line orbital elements,

1 26905U 01040A   16176.89851556 0.00000000  00000-0  00000-0 0    08
2 26905  63.4186 225.6442 0335000 358.3562   1.6437 13.40737894    07
Epoch (UTC): 24 June 2016 21:33:51
Eccentricity: 0.0335000
inclination: 63.4186°
perigee height: 856 km
apogee height: 1357 km
right ascension of ascending node: 225.6442°
argument of perigee: 358.3562°
revolutions per day: 13.40737894
mean anomaly at epoch: 1.6437°
orbit number at epoch: 0

The dashed part of the orbit path shows where the satellite is in the earth's shadow,  

DLR